Regional Weather Roundup
Issued by NWS Green Bay, WI

Home | Current Version | Previous Version | Text Only | Print | Product List | Glossary On
Versions: 1 2 3 4 5 6 7 8 9 10 11 12 13 14 15 16 17 18 19 20 21 22 23 24 25 26 27 28 29 30 31 32 33 34 35 36 37 38 39 40 41 42 43 44 45 46 47 48 49 50
000
ASUS43 KGRB 200011
RWRGRB

NORTH-CENTRAL AND NORTHEAST WISCONSIN REGIONAL WEATHER ROUNDUP
NATIONAL WEATHER SERVICE GREEN BAY WI
600 PM CST SUN NOV 19 2017

WIZ005-009-010>012-018-019-200100-
NORTH CENTRAL WISCONSIN

CITY           SKY/WX    TMP DP  RH WIND       PRES   REMARKS
IRONWOOD       CLOUDY   N/A N/A N/A SW7       29.86S
MANITOWISH WTR CLOUDY    20  19  96 S3        29.84S
ARBOR VITAE    CLOUDY    23  17  76 CALM      29.84F
EAGLE RIVER    CLOUDY    20  16  83 SW5       29.84S
LAND O LAKES   CLOUDY    21  18  88 SW3       29.85S
RHINELANDER    CLOUDY     1 N/A N/A SW6       29.86F WCI -10
PHILLIPS       CLOUDY    26  15  65 S5        29.85F
ANTIGO         CLOUDY    25  13  60 SW7       29.88S
TOMAHAWK       CLOUDY    24  15  68 CALM      29.88S
MERRILL        CLOUDY    28  16  60 SW7       29.90S
$$

WIZ013-073-200100-
NORTHEAST WISCONSIN

CITY           SKY/WX    TMP DP  RH WIND       PRES   REMARKS
IRON MOUNTAIN  PTCLDY    23  10  57 W6        29.85S
MARINETTE      CLOUDY    28  13  53 W3        29.92S
OCONTO         CLOUDY    26  11  52 SW5       29.93S
$$

WIZ017-030-035>037-045-200100-
CENTRAL WISCONSIN

CITY           SKY/WX    TMP DP  RH WIND       PRES   REMARKS
MEDFORD        CLOUDY    25  16  69 SW3       29.89S
WAUSAU         CLOUDY    28  15  58 W5        29.90S
MOSINEE        NOT AVBL
MARSHFIELD     CLEAR     25  14  63 SW5       29.91S
WISC RAPIDS    CLEAR     28  15  58 SW5       29.95S
STEVENS POINT  MOCLDY    24  12  61 SW5       29.93S
WAUPACA        MOCLDY    29  16  59 S5        29.95F
SHAWANO        CLOUDY    31  13  46 W5        29.93S
CLINTONVILLE   CLOUDY    28  12  50 SW3       29.93F
WAUTOMA        CLEAR     28  16  60 SW5       29.96F
$$

WIZ038-039-048-051-200100-
FOX VALLEY

CITY           SKY/WX    TMP DP  RH WIND       PRES   REMARKS
NWS GREEN BAY  CLOUDY    30  16  56 SW5       29.95S
APPLETON       PTCLDY    28  10  47 SW9       29.94R
OSHKOSH        CLOUDY    28  16  60 SW5       29.96S
FOND DU LAC    MOCLDY    27  15  61 SW5       29.97S
$$

WIZ022-050-052-200100-
EAST CENTRAL WISCONSIN

CITY           SKY/WX    TMP DP  RH WIND       PRES   REMARKS
EPHRAIM        MOCLDY    28  10  47 W7        29.90R
WASHINGTON ISL CLOUDY    28  11  49 W12       29.90S
STURGEON BAY   CLOUDY    28  13  53 W8        29.93R
MANITOWOC      MOCLDY    30  14  51 W6        29.97R
SHEBOYGAN      CLOUDY    29  15  56 SW6       29.97S
$$

LMZ563-521-522-541>543-200100-
LAKESHORE

STATION/POSITION TIME  TEMP    WIND        PRES    VSBY  WAVE
                       AIR SEA DIR/SP/G                  HT/PER
                 (UTC) (F)     (DEG/KT/KT) (MB)    (MI)  (FT/S)
SHEBOYGAN LKSHOR 0000   31     250/  8/ 11 1015.8R
KEWAUNEE LKSHORE 2348   29     260/  7/  9 1013.2S
NORTHPORT PIER   2314   29     250/  4/  9 1012.5
N MID LAKE BUOY  2350   30 48  260/ 16/ 21 1013.5S         3/ 4
MENOMINEE LKSHOR 2348   29     210/  6/  8 1012.8F
$$




USA.gov is the U.S. government's official web portal to all federal, state and local government web resources and services.